Regional Weather Roundup
Issued by NWS

Home | Current Version | Previous Version | Graphics & Text | Print | Product List | Glossary On
Versions: 1 2 3 4 5 6 7 8 9 10 11 12 13 14 15 16 17 18 19 20 21 22 23 24 25 26 27 28 29 30 31 32 33 34 35 36 37 38 39 40 41 42 43 44 45 46 47 48 49 50
000
ASUS43 KFSD 231402
RWRSD

WEATHER ROUNDUP FOR SOUTH DAKOTA
NATIONAL WEATHER SERVICE SIOUX FALLS SD
900 AM CDT WED AUG 23 2017

NOTE: "FAIR" INDICATES FEW OR NO CLOUDS BELOW 12,000 FEET WITH NO
SIGNIFICANT WEATHER AND/OR OBSTRUCTIONS TO VISIBILITY.


SDZ001>005-009-010-012>017-231500-
NORTHWEST AND NORTH CENTRAL SOUTH DAKOTA

CITY           SKY/WX    TMP DP  RH WIND       PRES   REMARKS
BUFFALO          N/A     59  49  69 NE3       30.01F
FAITH            N/A     62  53  72 SE9       30.05S
MOBRIDGE       SUNNY     66  50  56 SE8       30.05F
$$

SDZ012>016-024>037-041>051-057-063-072>074-231500-
SOUTHWEST AND SOUTH CENTRAL SOUTH DAKOTA

CITY           SKY/WX    TMP DP  RH WIND       PRES   REMARKS
RAPID CTY ARPT SUNNY     66  52  60 N6        30.06S
PIERRE         SUNNY     64  53  67 SE13      30.04F
CUSTER         SUNNY     67  53  61 CALM      30.19S
ELLSWORTH AFB  SUNNY     64  49  57 N6        30.06R
PHILIP         SUNNY     66  53  63 E5        30.03S
PINE RIDGE     SUNNY     66  52  60 SW15G24   30.08F
SPEARFISH      FAIR      66  50  55 W5        30.10S
WINNER         FAIR      68  56  65 S8        30.08F
$$

SDZ004>011-016>023-039-040-231500-
NORTHEAST SOUTH DAKOTA

CITY           SKY/WX    TMP DP  RH WIND       PRES   REMARKS
ABERDEEN       SUNNY     57  53  86 S6        30.10F
WATERTOWN      SUNNY     59  53  80 S5        30.13S
BROOKINGS      MOSUNNY   60  53  77 SE3       30.15S
SISSETON         N/A     60  53  77 E5        30.11S
$$

SDZ017-020-022-023-036>040-048>070-231500-
SOUTHEAST SOUTH DAKOTA

CITY           SKY/WX    TMP DP  RH WIND       PRES   REMARKS
SIOUX FALLS    MOSUNNY   64  57  78 CALM      30.15S
HURON          SUNNY     60  54  80 SE8       30.11F
CHAMBERLAIN    SUNNY     64  59  84 E9        30.10S
MITCHELL       SUNNY     63  56  78 S8        30.12F
YANKTON        SUNNY     60  55  83 CALM      30.16R
$$

ABBREVIATIONS USED IN REMARKS
   TC - TEMPERATURE IN CELSIUS
  WCI - WIND CHILL INDEX
   HX - HEAT INDEX
  VSB - VISIBILITY





USA.gov is the U.S. government's official web portal to all federal, state and local government web resources and services.